Overview Statistics Trail Chart Weather Telemetry Raw packets
 

This is the latest recevied weather packets stored in our database for station/object ZL1CTS-13. If no packets are shown the sender has not sent any weather packets the latest 10 day(s).

<< 11 12 13 14 15 16 17 >>
Time Temp. Humidity Pressure Rain* Wind** Luminosity Snow
1788586204 13.89° C 86% 1007.2 hPa 0 mm - - -
1788585905 13.89° C 85% 1007.2 hPa 0 mm - - -
1788585604 13.89° C 83% 1007.2 hPa 0 mm - - -
1788585306 14.44° C 82% 1007.2 hPa 0 mm - - -
1788585306 14.44° C 82% 1007.2 hPa 0 mm - - -
1788585004 14.44° C 81% 1007.2 hPa 0 mm - - -
1788584706 14.44° C 79% 1007.3 hPa 0 mm - - -
1788584406 15° C 77% 1007.5 hPa 0 mm - - -
1788584404 15° C 77% 1007.5 hPa 0 mm - - -
1788584106 15.56° C 73% 1007.4 hPa 0 mm - - -
1788583804 16.67° C 70% 1007.5 hPa 0 mm - - -
1788583506 16.67° C 69% 1007.5 hPa 0 mm - - -
1788583505 16.67° C 69% 1007.5 hPa 0 mm - - -
1788583204 16.67° C 70% 1007.7 hPa 0 mm - - -
1788582906 16.67° C 72% 1007.5 hPa 0 mm - - -
1788582605 16.67° C 72% 1007.5 hPa 0 mm - - -
1788582604 16.67° C 72% 1007.5 hPa 0 mm - - -
1788582305 16.67° C 74% 1007.5 hPa 0 mm - - -
1788582004 16.11° C 73% 1007.5 hPa 0 mm - - -
1788581706 16.67° C 74% 1007.5 hPa 0 mm - - -
1788581404 15.56° C 75% 1007.6 hPa 0 mm - - -
1788581105 15.56° C 75% 1007.7 hPa 0 mm - - -
1788580812 16.11° C 75% 1007.7 hPa 0 mm - - -
1788580803 16.11° C 75% 1007.7 hPa 0 mm - - -
1788580506 16.67° C 75% 1007.6 hPa 0 mm - - -

* Rain latest hour (hover to see other rain measurements)
** Current wind speed in m/s (hover to see current wind gust speed)